Weather History for KMLS - April, 2012

Change the Weather History Date:

Friday, April 27, 2012

  Actual Average Record
Temperature  
Mean Temperature 50 °F 50 °F  
Max Temperature 59 °F 63 °F 85 °F (1952)
Min Temperature 40 °F 37 °F 20 °F (1956)
Degree Days  
Heating Degree Days 15 15  
Month to date heating degree days 378 527  
Since 1 July heating degree days 5858 7202  
Cooling Degree Days 0 0  
Month to date cooling degree days 18 0  
Year to date cooling degree days 18 0  
Moisture  
Dew Point 43 °F    
Average Humidity 78    
Maximum Humidity 89    
Minimum Humidity 66    
Precipitation  
Precipitation 0.27 in 0.06 in 2.06 in (1989)
Month to date precipitation 0.51 1.18  
Year to date precipitation 1.19 2.33  
Sea Level Pressure  
Sea Level Pressure 29.59 in    
Wind  
Wind Speed 18 mph (West)    
Max Wind Speed 38 mph    
Max Gust Speed 46 mph    
Visibility 9 miles    
Events Rain    
T = Trace of Precipitation, MM = Missing Value Source: NWS Daily Summary

Daily Weather History Graph

Daily Weather History Graph

Search for Another Location

Airport or City:

Trip Planner

Search our weather history database for the weather conditions in past years. The results will help you decide how hot, cold, wet, or windy it might be!

Date:

Astronomy

Apr. 27, 2012 Rise Set
Actual Time 5:54 AM MDT 8:08 PM MDT
Civil Twilight 5:21 AM MDT 8:41 PM MDT
Nautical Twilight 4:41 AM MDT 9:22 PM MDT
Astronomical Twilight 3:55 AM MDT 10:08 PM MDT
Moon 10:30 AM MDT (4/27) 1:02 AM MDT (4/27)
Length of Visible Light 15h 19m
Length of Day
14h 13m
Waxing Crescent, 34% of the Moon is Illuminated
Apr 27
Waxing Crescent
Apr 29
First Quarter
May 5
Full
May 12
Last Quarter
May 20
New

Hourly Weather History & Observations

Time (MDT) Temp. Windchill Dew Point Humidity Pressure Visibility Wind Dir Wind Speed Gust Speed Precip Events Conditions
12:53 AM 57.0 °F - 46.0 °F 67% 29.45 in 10.0 mi ESE 12.7 mph 24.2 mph N/A   Clear
1:53 AM 57.9 °F - 46.0 °F 65% 29.42 in 10.0 mi ESE 12.7 mph - N/A   Mostly Cloudy
2:53 AM 57.0 °F - 46.0 °F 67% 29.40 in 10.0 mi ESE 8.1 mph - N/A   Clear
3:53 AM 57.0 °F - 46.9 °F 69% 29.39 in 10.0 mi East 10.4 mph - N/A   Clear
4:53 AM 57.9 °F - 48.0 °F 70% 29.38 in 10.0 mi East 5.8 mph - N/A   Scattered Clouds
5:53 AM 57.2 °F - 48.2 °F 72% 29.42 in 10.0 mi East 5.8 mph - N/A   Mostly Cloudy
6:53 AM 59.0 °F - 48.0 °F 67% 29.40 in 10.0 mi SW 11.5 mph 16.1 mph N/A   Scattered Clouds
7:53 AM 55.9 °F - 46.9 °F 72% 29.43 in 10.0 mi West 12.7 mph - N/A   Partly Cloudy
8:53 AM 55.9 °F - 45.0 °F 67% 29.47 in 10.0 mi West 10.4 mph - N/A   Overcast
9:44 AM 55.4 °F - 44.6 °F 67% 29.51 in 10.0 mi West 18.4 mph 24.2 mph N/A   Overcast
9:53 AM 55.0 °F - 44.1 °F 67% 29.49 in 10.0 mi West 17.3 mph - N/A   Overcast
10:53 AM 51.1 °F - 48.0 °F 89% 29.54 in 4.0 mi WNW 19.6 mph 28.8 mph 0.06 in Rain Rain
11:07 AM 48.2 °F - 44.6 °F 87% 29.55 in 3.0 mi WNW 31.1 mph 40.3 mph 0.03 in Rain Rain
11:10 AM 48.2 °F - 44.6 °F 87% 29.56 in 2.5 mi WNW 28.8 mph 40.3 mph 0.03 in Rain Rain
11:20 AM 46.4 °F 37.9 °F 44.6 °F 93% 29.57 in 5.0 mi WNW 25.3 mph 42.6 mph 0.04 in Rain Light Rain
11:28 AM 46.4 °F 37.0 °F 44.6 °F 93% 29.57 in 7.0 mi WNW 31.1 mph 42.6 mph 0.04 in Rain Light Rain
11:35 AM 46.4 °F 36.1 °F 42.8 °F 87% 29.57 in 7.0 mi WNW 38.0 mph 46.0 mph 0.05 in Rain Light Rain
11:44 AM 46.4 °F 37.0 °F 42.8 °F 87% 29.58 in 7.0 mi West 31.1 mph 46.0 mph 0.05 in Rain Light Rain
11:53 AM 46.0 °F 36.5 °F 43.0 °F 89% 29.58 in 6.0 mi WNW 31.1 mph 44.9 mph 0.06 in Rain Light Rain
12:53 PM 43.0 °F 32.9 °F 39.9 °F 89% 29.62 in 7.0 mi WNW 27.6 mph 44.9 mph 0.04 in Rain Light Rain
1:06 PM 42.8 °F 32.1 °F 39.2 °F 87% 29.62 in 10.0 mi West 31.1 mph 39.1 mph 0.01 in Rain Light Rain
1:53 PM 42.8 °F 32.9 °F 39.2 °F 87% 29.64 in 8.0 mi West 26.5 mph 39.1 mph N/A Rain Light Rain
2:53 PM 44.1 °F 33.7 °F 39.9 °F 85% 29.66 in 10.0 mi WNW 32.2 mph 40.3 mph 0.02 in Rain Light Rain
3:53 PM 44.1 °F 34.2 °F 39.9 °F 85% 29.68 in 10.0 mi WNW 28.8 mph 40.3 mph 0.01 in Rain Light Rain
4:44 PM 44.6 °F 35.5 °F 41.0 °F 87% 29.68 in 10.0 mi WNW 25.3 mph 34.5 mph 0.02 in Rain Light Rain
4:53 PM 45.0 °F 36.6 °F 41.0 °F 86% 29.68 in 10.0 mi WNW 21.9 mph 31.1 mph 0.02 in Rain Light Rain
5:05 PM 44.6 °F 35.3 °F 41.0 °F 87% 29.69 in 10.0 mi West 26.5 mph 31.1 mph 0.00 in Rain Light Rain
5:53 PM 45.0 °F 36.0 °F 41.0 °F 86% 29.69 in 10.0 mi WNW 25.3 mph 34.5 mph 0.00 in   Overcast
6:53 PM 45.0 °F 36.9 °F 39.0 °F 80% 29.70 in 10.0 mi WNW 20.7 mph 29.9 mph N/A   Overcast
7:53 PM 44.1 °F 35.9 °F 39.0 °F 82% 29.72 in 10.0 mi West 19.6 mph 26.5 mph 0.00 in Rain Light Rain
8:53 PM 44.1 °F 36.5 °F 39.0 °F 82% 29.73 in 10.0 mi West 17.3 mph - 0.01 in Rain Light Rain
9:53 PM 43.0 °F 34.5 °F 39.0 °F 86% 29.74 in 10.0 mi West 19.6 mph 28.8 mph 0.00 in Rain Light Rain
10:22 PM 42.8 °F 34.3 °F 37.4 °F 81% 29.74 in 10.0 mi West 19.6 mph 28.8 mph 0.00 in   Overcast
10:31 PM 42.8 °F 35.4 °F 39.2 °F 87% 29.74 in 10.0 mi West 15.0 mph 28.8 mph 0.00 in Rain Light Rain
10:53 PM 42.1 °F 33.1 °F 37.9 °F 85% 29.75 in 10.0 mi West 20.7 mph 28.8 mph 0.01 in   Overcast
11:01 PM 42.8 °F 34.5 °F 39.2 °F 87% 29.73 in 10.0 mi West 18.4 mph 27.6 mph N/A   Overcast
11:53 PM 42.1 °F 33.9 °F 37.9 °F 85% 29.76 in 10.0 mi West 17.3 mph - N/A   Overcast